Weather in Malakeyevo

Russia / Belgorod Oblast     50°19′00″N   38°39′48″E
temp.,
°C
wind,
m/s
gust,
m/s
humid.,
%
clouds,
%
prec.,
mm/h
press.,
hPa
HPBL,
m
19 april, mon
mon1900:00+8se3370100 0.1 101750
03:00+7n358674 0.1 101797
06:00+6ne369354 0.3 1017181
09:00+11ene336895 0.5 1016387
12:00+13se3351100 1.0 10141382
15:00+15sse2244100 1.3 10141798
18:00+13se4559100 0.3 1014332
21:00+10se367581 0.8 1014130
20 april, tue
tue2000:00+9ese2275100 0.1 101423
03:00+8e4785100 0.1 1013174
06:00+8ene488990 0.1 1011286
09:00+10e6984100 0.3 1011533
12:00+14e6766100 0.2 10081237
15:00+11e5992100 2.7 1005638
18:00+9n3396100 12.1 1001189
21:00+8nne4595100 17.2 1001391
21 april, wed
wed2100:00+7n3493100 4.8 1001220
03:00+7w4891100 5.1 1005516
06:00+7sw4893100 0.0 1008451
09:00+8sw4793100 0.3 1010516
12:00+9wsw378519 0.5 1012490
15:00+14wsw695458 1.3 10121888
18:00+11w4766100 0.2 10151007
21:00+8ssw33739 0.2 101625
22 april, thu
thu2200:00+7ssw357793 0.0 101783
03:00+8sse249159 1.2 1018129
06:00+6ssw36925 0.0 1019132
09:00+11sw34720 0.0 1020611
12:00+15sw344910 0.0 10201807
15:00+16wsw4542100 0.0 10202139
18:00+14wnw2262100 0.0 102133
21:00+12s2261100 0.0 102235
23 april, fri
fri2300:00+12s3363100 0.0 102247
03:00+11ssw3467100 0.0 102287
06:00+10ssw236996 0.0 102272
09:00+13ssw356286 0.0 1022338
12:00+17s3443100 0.0 10212295
15:00+16s344677 0.1 10211759
18:00+12sse467491 0.6 1020164
21:00+10s357542 0.6 102077